User: anonymous   Login
Location: Karaa?a�
(36.7158°N, 30.4165°E)
Time: 13:31:18
(UTC+00:00)
Language:

Cosmos 1328 - Orbit

View from above orbital plane
View from above orbital plane
View from above satellite
View from above satellite

Ground track
Ground track

The orbit data is extracted from the following two-line orbital elements,

1 12987U 81117A   21163.77070116  .00000088  00000-0  36286-5 0  9993
2 12987  82.5192 262.4069 0024094  55.6498 304.7005 15.08412167151710
Epoch (UTC): 12 June 2021 18:29:48
Eccentricity: 0.0024094
inclination: 82.5192°
perigee height: 524 km
apogee height: 558 km
right ascension of ascending node: 262.4069°
argument of perigee: 55.6498°
revolutions per day: 15.08412167
mean anomaly at epoch: 304.7005°
orbit number at epoch: 15171

The dashed part of the orbit path shows where the satellite is in the earth's shadow,  

DLR